Miscellaneous Local Product
Issued by NWS Hastings, NE

Home | Current Version | Previous Version | Text Only | Print | Product List | Glossary Off
Versions: 1 2 3 4 5 6 7 8 9 10 11 12 13 14 15 16 17 18 19 20 21 22 23 24 25 26 27 28 29 30 31 32 33 34 35 36 37 38 39 40 41 42 43 44 45 46 47 48 49 50

000
AXUS43 KGID 231202
MISGRI

GID CWA HOURLY WEATHER ROUNDUP
NATIONAL WEATHER SERVICE HASTINGS NE
700 AM CDT WED AUG 23 2017

NOTE: "FAIR" INDICATES FEW OR NO CLOUDS BELOW 12,000 FEET WITH NO
SIGNIFICANT WEATHER AND/OR OBSTRUCTIONS TO VISIBILITY.

...SOUTH CENTRAL NEBRASKA...

CITY           SKY/WX    TMP DP  RH WIND       PRES   REMARKS
GRAND ISLAND   CLEAR     57  53  86 S8        30.17S
HASTINGS       CLEAR     56  50  80 S5        30.19R
KEARNEY        CLEAR     55  51  86 S8        30.18S
ORD            CLEAR     54  51  90 SE3       30.14S
YORK           CLEAR     54  54 100 SW6       30.18R
AURORA         CLEAR     57  52  81 S7        30.17S
LEXINGTON      CLEAR     57  51  82 S6        30.17F
HOLDREGE       PTCLDY    56  50  81 S5        30.17S
HEBRON         CLEAR     51  50  95 CALM      30.18S

...NEBRASKA PANHANDLE...

CITY           SKY/WX    TMP DP  RH WIND       PRES   REMARKS
CHADRON        CLEAR     58  51  78 S5        30.07S
ALLIANCE       CLEAR     54  48  80 SE7       30.12S
SCOTTSBLUFF    CLEAR     56  52  86 E6        30.12R
SIDNEY         CLEAR     56  52  86 S14       30.15S

...WESTERN AND NORTH CENTRAL NEBRASKA...

CITY           SKY/WX    TMP DP  RH WIND       PRES   REMARKS
VALENTINE      CLEAR     58  50  75 SW5       30.10S
AINSWORTH      CLEAR     59  53  81 SW10      30.12S
ONEILL         MOCLDY    56  55  93 S6        30.15R
BROKEN BOW     CLEAR     56  52  86 S6        30.16R
IMPERIAL       CLEAR     57  47  69 S12       30.18S
NORTH PLATTE   CLEAR     59  51  75 S7        30.17S
MCCOOK         CLEAR     55  50  83 S5        30.17F

...EASTERN NEBRASKA...

CITY           SKY/WX    TMP DP  RH WIND       PRES   REMARKS
NORFOLK        CLEAR     51  51 100 SE3       30.16S
SO SIOUX CITY  PTCLDY    52  52 100 SE5       30.16R
TEKAMAH        MOCLDY    52  50  93 SE3       30.16R
COLUMBUS       CLEAR     51  50  96 CALM      30.18R FOG
ALBION         CLEAR     57  53  85 CALM      30.16S
OMAHA EPPLEY   CLEAR     59  54  83 CALM      30.16S
OFFUTT AFB     CLEAR     51  50  96 CALM      30.16R
MILLARD        CLEAR     56  55  97 CALM      30.16S
LINCOLN        CLEAR     54  52  93 CALM      30.18S
NEBRASKA CITY  CLEAR     55  55 100 CALM      30.16S
BEATRICE       CLEAR     54  52  94 CALM      30.17S
FALLS CITY     CLEAR     51  50  96 NW5       30.15S

...NORTHERN KANSAS...

CITY           SKY/WX    TMP DP  RH WIND       PRES   REMARKS
GOODLAND       CLEAR     54  48  80 S14       30.20S
HILL CITY      CLEAR     52  49  89 CALM      30.20R
NORTON         SUNNY     55  45  67 S5        30.18S
PHILLIPSBURG   CLEAR     52  52 100 CALM      30.19S
SMITH CENTER   CLEAR     52  48  87 E3        30.19S
HAYS           CLEAR     54  49  83 CALM      30.20R
RUSSELL        CLEAR     53  48  83 S8        30.18R
CONCORDIA      CLEAR     53  51  93 CALM      30.18S
SALINA         CLEAR     56  50  80 CALM      30.18F
TOPEKA         CLEAR     55  55 100 CALM      30.17S



USA.gov is the U.S. government's official web portal to all federal, state and local government web resources and services.